Terminal Aerodrome Forecast
Issued by NWS

Home | Current Version | Previous Version | Text Only | Print | Product List | Glossary On
Versions: 1 2 3 4 5 6 7 8 9 10 11 12 13 14 15 16 17 18 19 20 21 22 23 24 25 26 27 28 29 30 31 32
000
FTAK31 PANC 272335
TAFADQ
TAF
PADQ 272335Z 2800/2824 VRB06KT P6SM VCSH BKN045
      TEMPO 2800/2803 3SM -RA BR OVC012
     FM280300 10010KT 3SM -RA BR OVC012
     FM280600 08010KT 3SM -RA BR BKN005 OVC012
     FM281600 VRB03KT 6SM -RA BR OVC005
     FM282000 VRB03KT P6SM SCT005 BKN025
     FM282300 34006KT P6SM SCT025=

USA.gov is the U.S. government's official web portal to all federal, state and local government web resources and services.